Waarnemingen

Advertentie
Mijn weer
Lichtenhain-Mittelndorf, Duitsland (10591): temperatuur & dauwpunt: 20.09.2017 14:00:00 - 26.09.2017 14:00:00 (CEST)Lichtenhain-Mittelndorf, Duitsland (10591): temperatuur 5cm & temperatuur -5cm: 20.09.2017 14:00:00 - 26.09.2017 14:00:00 (CEST)Lichtenhain-Mittelndorf, Duitsland (10591): temperatuur -20cm & temperatuur -100cm: 20.09.2017 14:00:00 - 26.09.2017 14:00:00 (CEST)Lichtenhain-Mittelndorf, Duitsland (10591): windsnelheid & windstoten: 20.09.2017 14:00:00 - 26.09.2017 14:00:00 (CEST)Lichtenhain-Mittelndorf, Duitsland (10591): windrichting: 20.09.2017 14:00:00 - 26.09.2017 14:00:00 (CEST)Lichtenhain-Mittelndorf, Duitsland (10591): luchtdruk: 20.09.2017 14:00:00 - 26.09.2017 14:00:00 (CEST)Lichtenhain-Mittelndorf, Duitsland (10591): zicht: 20.09.2017 14:00:00 - 26.09.2017 14:00:00 (CEST)Lichtenhain-Mittelndorf, Duitsland (10591): Zonneschijnduur: 20.09.2017 14:00:00 - 26.09.2017 14:00:00 (CEST)Lichtenhain-Mittelndorf, Duitsland (10591): neerslag: 20.09.2017 14:00:00 - 26.09.2017 14:00:00 (CEST)
Datum & Tijd tt [°C] td [°C] tt 5cm [°C] tt -5cm [°C] tt -20cm [°C] tt -100cm [°C] ff [km/u] ff [kn] fx [km/u] fx [kn] dd ppp [hPa] vv [km] sd [min] rr [mm]
26.09.2017 14:00:00 15,1 11,4 15,7 16,2 13,2 13,8 12 7 27 14 ZO 1025,0 26 0 0,0
26.09.2017 13:00:00 15,2 11,4 16,4 16,5 12,8 13,8 9 5 22 12 OZO 1025,1 35 22 0,0
26.09.2017 12:00:00 14,3 11,8 15,0 14,4 12,5 13,8 6 4 18 10 ZZO 1025,2 20 0 0,0
26.09.2017 11:00:00 13,8 10,8 14,1 13,9 12,2 13,8 10 6 21 11 OZO 1025,4 25 0 0,0
26.09.2017 10:00:00 13,2 10,4 13,6 12,8 12,1 13,8 10 5 19 10 OZO 1025,1 24 0 0,0
26.09.2017 09:00:00 12,2 10,1 12,0 11,1 12,2 13,8 5 3 18 10 O 1024,8 16 0 0,0
26.09.2017 08:00:00 11,5 9,8 10,1 10,8 12,3 13,8 8 4 17 9 O 1024,6 12 0 0,0
26.09.2017 07:00:00 11,5 10,1 11,1 11,1 12,4 13,8 12 7 21 11 OZO 1024,3 11 0 0,0
26.09.2017 06:00:00 11,7 10,0 11,0 11,1 12,5 13,8 11 6 18 10 O 1024,0 10 0 0,0
26.09.2017 05:00:00 11,8 10,1 11,0 11,2 12,6 13,8 8 4 13 7 O 1023,8 10 0 0,0
26.09.2017 04:00:00 11,6 10,1 10,7 11,3 12,8 13,8 4 2 14 8 OZO 1024,0 9 0 0,0
26.09.2017 03:00:00 11,8 10,3 11,1 11,4 12,9 13,8 9 5 16 9 O 1023,8 9 0 0,0
26.09.2017 02:00:00 11,8 10,5 11,3 11,5 13,1 13,8 12 6 18 10 OZO 1023,7 9 0 0,0
26.09.2017 01:00:00 11,7 10,5 11,0 11,7 13,3 13,8 7 4 19 10 O 1023,6 9 0 0,0
26.09.2017 00:00:00 12,1 10,7 11,5 12,1 13,5 13,8 10 6 17 9 O 1023,6 11 0 0,0
25.09.2017 23:00:00 12,2 10,8 11,4 12,4 13,6 13,8 6 3 14 7 O 1023,6 12 0 0,0
25.09.2017 22:00:00 11,8 11,0 11,6 12,7 13,9 13,8 9 5 15 8 OZO 1023,4 6 0 0,0
25.09.2017 21:00:00 11,7 11,0 11,1 13,0 14,0 13,8 6 3 14 7 O 1023,4 7 0 0,0
25.09.2017 20:00:00 12,2 11,1 11,8 13,7 14,2 13,8 10 6 14 7 ONO 1022,9 11 0 0,0
25.09.2017 19:00:00 12,7 11,6 12,4 14,6 14,2 13,9 5 3 26 14 ZO 1022,7 10 0 2,1
25.09.2017 18:00:00 13,7 12,3 13,5 16,1 14,0 13,9 11 6 27 14 ZZO 1022,2 1,4 0 0,1
25.09.2017 17:00:00 14,3 12,3 14,7 16,5 13,7 13,9 5 3 14 8 O 1021,6 12 17 0,0
25.09.2017 16:00:00 13,9 12,1 14,3 15,9 13,4 13,9 8 5 15 8 ONO 1021,6 15 1 1,8
25.09.2017 15:00:00 13,6 11,5 13,7 16,0 13,1 13,9 9 5 15 8 OZO 1021,7 11 0 0,0
25.09.2017 14:00:00 14,3 11,9 15,8 16,1 12,7 13,9 6 3 10 5 O 1021,4 21 0 0,0
25.09.2017 13:00:00 13,4 11,8 14,2 14,8 12,3 13,9 3 1 10 5 ZO 1021,6 10 0 0,0
25.09.2017 12:00:00 13,3 11,8 14,2 14,6 12,0 13,9 6 4 10 5 NNO 1021,6 10 0 0,2
25.09.2017 11:00:00 12,1 11,4 12,9 12,6 11,9 13,9 3 2 4 2 NNW 1021,8 4,0 0 0,5
25.09.2017 10:00:00 11,6 11,2 11,9 11,8 11,9 13,9 3 2 5 3 WNW 1021,8 0,2 0 0,3
25.09.2017 09:00:00 11,4 11,0 11,6 11,6 11,9 13,9 2 1 5 3 WNW 1021,7 1,4 0 1,0
25.09.2017 08:00:00 11,3 10,9 11,4 11,4 11,9 13,9 3 2 5 3 NW 1021,5 0,1 0 0,3
25.09.2017 07:00:00 11,3 11,0 11,4 11,3 11,9 13,9 2 1 6 4 ZZW 1021,3 0,1 0 0,0
25.09.2017 06:00:00 11,4 11,0 11,4 11,3 11,9 13,9 2 1 10 5 W 1021,4 1,1 0 0,4
25.09.2017 05:00:00 11,1 10,7 11,2 11,2 11,9 13,9 6 3 9 5 WNW 1021,6 0,2 0 1,1
25.09.2017 04:00:00 11,0 10,6 11,0 11,0 12,0 13,9 5 3 8 5 W 1022,0 0,6 0 0,7
25.09.2017 03:00:00 10,7 10,2 10,3 10,8 12,1 13,9 6 3 9 5 WNW 1022,4 0,2 0 0,0
25.09.2017 02:00:00 11,0 10,5 10,9 11,3 12,2 13,9 5 3 11 6 NNO 1022,7 4,3 0 0,0
25.09.2017 01:00:00 11,2 10,7 11,0 11,5 12,2 13,9 2 1 13 7 N 1023,1 4,0 0 0,0
25.09.2017 00:00:00 11,4 10,9 11,5 11,7 12,3 13,9 6 4 14 8 NO 1023,2 0,8 0 0,0
24.09.2017 23:00:00 11,5 11,0 11,6 11,9 12,3 13,9 3 2 9 5 WNW 1023,3 0,8 0 0,0
24.09.2017 22:00:00 11,4 11,0 11,5 11,9 12,3 13,9 5 3 6 4 NNW 1023,4 0,1 0 0,0
24.09.2017 21:00:00 11,4 10,9 11,6 12,0 12,3 13,9 3 2 8 4 NW 1023,6 0,1 0 0,0
24.09.2017 20:00:00 11,4 11,0 11,6 12,1 12,3 13,9 3 2 8 4 WZW 1023,6 0,7 0 0,0
24.09.2017 19:00:00 11,4 10,9 11,6 12,3 12,3 13,9 6 3 10 6 WNW 1023,5 0,6 0 0,0
24.09.2017 18:00:00 11,4 10,9 11,8 12,4 12,2 13,9 7 4 11 6 W 1023,0 2,0 0 0,0
24.09.2017 17:00:00 11,4 10,7 11,9 12,7 12,1 13,9 6 3 11 6 WZW 1022,9 3,0 0 0,0
24.09.2017 16:00:00 11,3 10,6 12,2 12,6 12,0 13,9 7 4 11 6 W 1022,8 2,5 0 0,0
24.09.2017 15:00:00 11,0 10,5 11,7 12,5 11,9 13,9 8 4 13 7 W 1023,0 2,2 0 0,0
24.09.2017 14:00:00 11,0 10,4 11,9 12,4 11,7 13,9 9 5 14 8 W 1022,8 2,7 0 0,0
24.09.2017 13:00:00 10,8 10,2 11,8 12,3 11,5 13,9 11 6 16 9 WNW 1022,7 2,5 0 0,0
24.09.2017 12:00:00 10,5 10,0 11,5 11,7 11,4 14,0 9 5 18 10 W 1022,5 2,4 0 0,1
24.09.2017 11:00:00 10,1 9,6 10,8 11,1 11,4 14,0 12 7 19 10 W 1022,6 1,5 0 0,2
24.09.2017 10:00:00 9,8 9,4 10,2 10,7 11,4 14,0 10 6 22 12 W 1022,4 1,2 0 0,2
24.09.2017 09:00:00 9,6 9,2 10,0 10,5 11,4 14,0 12 6 23 12 W 1021,8 1,0 0 0,3
24.09.2017 08:00:00 9,5 9,1 9,7 10,3 11,5 14,0 13 7 22 12 W 1021,6 1,1 0 0,0
24.09.2017 07:00:00 9,5 9,0 9,6 10,3 11,5 14,0 14 7 22 12 W 1021,3 2,5 0 0,1
24.09.2017 06:00:00 9,5 9,0 9,7 10,3 11,6 14,0 12 7 20 11 W 1021,1 2,2 0 0,2
24.09.2017 05:00:00 9,5 9,1 9,7 10,3 11,7 14,0 11 6 20 11 W 1021,3 1,1 0 0,1
24.09.2017 04:00:00 9,4 9,0 9,6 10,3 11,8 14,0 11 6 22 12 W 1021,6 0,5 0 0,1
24.09.2017 03:00:00 9,3 8,9 9,5 10,4 11,9 14,0 11 6 19 11 W 1021,7 0,8 0 0,4
24.09.2017 02:00:00 9,2 8,7 9,5 10,5 12,0 14,0 11 6 20 11 W 1022,0 1,5 0 0,4
24.09.2017 01:00:00 9,4 8,9 9,6 10,7 12,2 14,0 8 4 20 11 NNW 1022,0 1,9 0 0,4
24.09.2017 00:00:00 9,5 9,0 9,7 10,8 12,3 14,0 11 6 18 10 W 1022,1 1,5 0 0,1
23.09.2017 23:00:00 9,6 9,0 9,8 11,0 12,5 14,0 11 6 16 9 W 1022,2 3,6 0 0,2
23.09.2017 22:00:00 9,8 9,2 9,9 11,0 12,7 14,0 8 4 15 8 NW 1022,3 3,9 0 1,3
23.09.2017 21:00:00 9,9 8,9 9,9 11,3 12,9 14,0 10 5 16 9 WNW 1022,4 4,0 0 2,5
23.09.2017 20:00:00 10,1 8,9 9,9 11,7 13,1 14,0 9 5 19 11 NNW 1022,6 3,5 0 2,1
23.09.2017 19:00:00 10,9 9,0 10,4 12,5 13,1 14,0 10 5 14 8 N 1022,6 6 0 1,8
23.09.2017 18:00:00 11,7 9,6 11,1 13,2 13,2 14,0 8 4 19 11 N 1022,4 10 0 0,3
23.09.2017 17:00:00 13,1 9,4 12,6 13,9 13,1 14,0 11 6 21 11 NNO 1022,1 27 0 0,0
23.09.2017 16:00:00 14,1 8,6 14,3 14,7 12,8 14,0 14 8 28 15 N 1021,8 34 0 0,0
23.09.2017 15:00:00 14,8 8,8 16,4 15,6 12,4 14,0 14 8 26 14 N 1021,7 32 0 0,0
23.09.2017 14:00:00 14,5 8,5 16,2 15,2 12,0 14,0 16 9 25 14 NNW 1021,8 21 0 0,0
23.09.2017 13:00:00 14,1 8,5 15,2 14,9 11,5 14,0 13 7 21 11 NNW 1022,4 17 0 0,0
23.09.2017 12:00:00 13,8 10,4 16,3 15,5 10,8 14,0 8 4 12 7 W 1022,8 9 47 0,0
23.09.2017 11:00:00 10,6 9,0 14,4 12,7 10,4 14,0 7 4 11 6 WZW 1023,6 6 39 0,0
23.09.2017 10:00:00 8,4 7,8 11,6 10,1 10,3 14,0 1 1 5 3 ZW 1023,8 0,8 13 0,0
23.09.2017 09:00:00 6,2 6,0 6,8 8,2 10,5 14,0 2 1 4 2 OZO 1024,1 0,2 0 0,0
23.09.2017 08:00:00 5,3 4,9 5,4 7,2 10,7 14,0 3 2 5 3 OZO 1023,8 0,2 0 0,0
23.09.2017 07:00:00 4,7 4,3 4,0 7,0 11,0 14,0 2 1 7 4 N 1023,8 0,1 0 0,0
23.09.2017 06:00:00 5,6 5,3 4,6 7,2 11,4 14,0 6 3 9 5 O 1023,8 1,1 0 0,0
23.09.2017 05:00:00 6,0 5,6 3,7 7,6 11,7 14,0 3 1 4 2 OZO 1023,7 0,1 0 0,0
23.09.2017 04:00:00 5,8 5,4 5,1 8,1 12,1 14,0 3 2 7 4 O 1023,7 0,3 0 0,0
23.09.2017 03:00:00 6,6 6,2 4,9 8,6 12,5 14,0 3 2 6 4 O 1023,9 0,2 0 0,0
23.09.2017 02:00:00 7,7 7,2 5,3 9,1 12,9 14,0 0 0 8 4 N 1023,8 4,0 0 0,0
23.09.2017 01:00:00 8,4 7,8 5,2 9,7 13,3 14,0 4 2 6 4 OZO 1023,6 7 0 0,0
23.09.2017 00:00:00 8,9 8,3 6,3 10,4 13,7 14,0 3 2 7 4 ZO 1023,5 6 0 0,0
22.09.2017 23:00:00 9,7 8,7 7,6 11,2 14,0 14,0 6 3 8 4 O 1023,3 9 0 0,0
22.09.2017 22:00:00 10,5 9,2 7,5 12,3 14,4 14,0 0 0 10 6 N 1022,7 14 0 0,0
22.09.2017 21:00:00 11,5 9,4 10,9 13,2 14,6 14,0 5 3 10 5 O 1022,5 20 0 0,0
22.09.2017 20:00:00 12,3 9,5 11,7 14,1 14,9 14,0 6 4 9 5 ONO 1022,0 23 0 0,0
22.09.2017 19:00:00 13,3 8,8 11,8 15,3 14,9 14,0 6 3 8 4 ZO 1021,4 27 11 0,0
22.09.2017 18:00:00 14,2 9,4 14,0 17,0 14,7 14,0 4 2 18 10 ZZO 1021,0 29 17 0,0
22.09.2017 17:00:00 16,4 7,8 18,5 19,7 14,2 14,0 10 5 16 8 NNW 1020,5 23 55 0,0
22.09.2017 16:00:00 16,1 9,6 18,2 18,6 13,7 14,0 6 3 11 6 NNO 1020,6 25 47 0,0
22.09.2017 15:00:00 13,5 10,5 13,4 16,4 13,3 14,0 5 3 16 9 NNO 1021,0 13 0 0,4
22.09.2017 14:00:00 15,0 8,9 18,2 18,1 12,8 14,0 6 3 14 7 WNW 1020,6 26 32 0,0
22.09.2017 13:00:00 13,8 9,3 16,3 16,1 12,3 14,0 7 4 14 8 ZW 1021,0 22 5 0,0
22.09.2017 12:00:00 13,2 9,2 15,0 15,4 11,9 14,0 4 2 13 7 W 1021,0 12 10 0,0
22.09.2017 11:00:00 12,1 10,3 13,8 13,5 11,6 14,0 7 4 11 6 WZW 1021,3 4,8 1 0,0
22.09.2017 10:00:00 11,2 9,9 12,3 11,7 11,5 14,0 0 0 7 4 N 1021,4 3,5 0 0,3
22.09.2017 09:00:00 10,9 9,3 11,2 11,3 11,4 14,0 0 0 6 3 N 1021,0 4,3 9 0,0
22.09.2017 08:00:00 10,1 9,1 10,4 10,4 11,5 14,0 4 2 8 4 WNW 1020,7 3,5 0 0,0
22.09.2017 07:00:00 9,7 9,1 9,4 10,2 11,6 14,0 4 2 8 5 ZW 1020,5 2,0 0 0,0
22.09.2017 06:00:00 9,7 8,9 9,5 10,1 11,7 14,0 4 2 8 4 NNW 1020,4 3,7 0 0,0
22.09.2017 05:00:00 9,4 8,9 9,0 10,1 11,8 14,0 3 2 8 4 WZW 1020,4 0,1 0 0,0
22.09.2017 04:00:00 10,1 8,9 9,5 10,5 12,0 14,0 4 2 7 4 WNW 1020,5 4,5 0 0,0
22.09.2017 03:00:00 10,4 8,9 9,6 10,6 12,1 14,1 5 3 8 4 WNW 1020,8 6 0 0,0
22.09.2017 02:00:00 10,8 9,2 10,0 10,9 12,2 14,1 4 2 9 5 NW 1021,0 7 0 0,1
22.09.2017 01:00:00 10,7 8,9 9,9 11,2 12,3 14,1 8 5 10 5 WNW 1020,9 8 0 0,0
22.09.2017 00:00:00 11,4 9,0 10,8 11,4 12,4 14,1 7 4 9 5 NNW 1020,8 9 0 0,0
21.09.2017 23:00:00 11,5 9,0 10,7 11,5 12,5 14,1 5 3 8 4 WNW 1020,9 9 0 0,0
21.09.2017 22:00:00 11,6 9,3 10,5 11,7 12,7 14,1 3 2 5 3 W 1021,0 8 0 0,0
21.09.2017 21:00:00 11,7 9,5 10,7 11,9 12,8 14,1 2 1 9 5 NNW 1021,0 9 0 0,0
21.09.2017 20:00:00 11,9 9,1 10,9 12,1 13,0 14,1 8 4 13 7 NW 1020,7 11 0 0,0
21.09.2017 19:00:00 12,3 9,1 11,6 12,9 13,0 14,1 10 5 16 9 NNW 1020,3 12 0 0,0
21.09.2017 18:00:00 13,3 9,3 13,3 14,0 12,9 14,1 12 6 27 14 NW 1020,3 11 1 0,0
21.09.2017 17:00:00 14,0 9,1 14,6 14,8 12,7 14,1 16 9 31 17 NW 1020,3 14 9 0,0
21.09.2017 16:00:00 14,5 9,2 15,8 15,3 12,3 14,1 16 9 23 12 NW 1020,4 18 0 0,0
21.09.2017 15:00:00 14,4 9,4 16,4 15,6 11,8 14,1 13 7 27 14 NW 1020,6 14 0 0,0
21.09.2017 14:00:00 14,0 9,7 16,3 15,0 11,3 14,1 13 7 25 13 NW 1020,9 13 0 0,0
21.09.2017 13:00:00 12,5 9,5 14,2 13,8 10,8 14,1 5 3 14 7 W 1021,6 8 0 0,0
21.09.2017 12:00:00 10,7 9,4 12,9 13,1 10,2 14,1 4 2 15 8 Z 1021,9 3,7 0 0,0
21.09.2017 11:00:00 10,2 9,2 11,7 12,7 9,8 14,2 7 4 17 9 W 1022,1 3,6 0 0,0
21.09.2017 10:00:00 9,7 8,5 11,7 10,5 9,5 14,2 9 5 14 8 WNW 1021,9 3,8 0 0,0
21.09.2017 09:00:00 8,1 7,4 8,8 8,4 9,4 14,2 5 3 7 4 W 1022,1 3,0 0 0,0
21.09.2017 08:00:00 7,4 6,8 7,9 7,4 9,5 14,2 2 1 7 4 WNW 1022,1 2,4 0 0,0
21.09.2017 07:00:00 7,1 6,7 5,8 6,5 9,6 14,2 2 1 6 4 WZW 1022,1 2,5 0 0,0
21.09.2017 06:00:00 6,3 5,8 6,0 6,1 9,9 14,2 2 1 5 3 NW 1022,0 0,3 0 0,0
21.09.2017 05:00:00 6,9 6,5 4,2 6,2 10,2 14,2 3 2 8 4 OZO 1022,0 2,7 0 0,0
21.09.2017 04:00:00 7,0 6,4 5,2 6,5 10,5 14,2 7 4 10 5 W 1022,2 3,3 0 0,0
21.09.2017 03:00:00 6,9 6,4 5,4 6,8 10,9 14,2 5 3 6 4 NW 1022,5 2,0 0 0,0
21.09.2017 02:00:00 7,7 7,0 5,9 7,2 11,3 14,2 4 2 8 4 Z 1022,4 6 0 0,0
21.09.2017 01:00:00 7,7 7,0 4,7 7,7 11,6 14,2 2 1 6 3 ZZW 1022,2 6 0 0,0
21.09.2017 00:00:00 7,7 6,6 5,0 8,3 12,0 14,2 3 2 6 3 NW 1021,8 9 0 0,0
20.09.2017 23:00:00 8,7 7,0 6,2 8,8 12,5 14,2 4 2 7 4 NNW 1021,6 15 0 0,0
20.09.2017 22:00:00 8,7 7,1 7,0 9,5 12,9 14,2 4 2 7 4 N 1021,5 18 0 0,0
20.09.2017 21:00:00 8,9 7,6 7,7 10,5 13,3 14,2 7 4 9 5 NW 1021,3 27 0 0,0
20.09.2017 20:00:00 9,3 8,7 8,5 11,9 13,5 14,2 6 4 8 4 NW 1021,0 1,1 1 0,0
20.09.2017 19:00:00 10,5 9,1 10,0 13,9 13,5 14,2 4 2 10 5 W 1020,4 24 9 0,0
20.09.2017 18:00:00 10,7 8,9 11,5 15,0 13,3 14,3 6 3 37 20 ZO 1020,1 26 25 5,2
20.09.2017 17:00:00 11,7 9,0 12,1 16,6 13,0 14,3 9 5 37 20 NW 1019,9 20 52 0,1
20.09.2017 16:00:00 11,6 9,8 12,1 14,8 12,7 14,3 6 4 16 9 ZW 1019,8 12 0 0,1
20.09.2017 15:00:00 11,9 8,8 12,8 15,8 12,4 14,3 7 4 14 8 Z 1019,7 14 12 0,4
20.09.2017 14:00:00 11,1 9,5 12,3 15,1 12,0 14,3 10 6 25 13 WNW 1019,9 3,0 9 0,4

tt = temperatuur
td = dauwpunt
tt 5cm = temperatuur 5cm
tt -5cm = temperatuur -5cm
tt -20cm = temperatuur -20cm
tt -100cm = temperatuur -100cm
ff = windsnelheid
fx = windstoten
dd = windrichting
ppp = luchtdruk
vv = zicht
sd = Zonneschijnduur
rr = neerslag

Weerstations in de omgeving